Погода в Зилани

Погода в Зилани : погода сейчас, прогноз погоды и архив. Всё, что Вы хотите узнать о погоде в Зилани!

Поиск расширенной информации на нашем сайте:

Другие новости

Новости СМИ2

Главная страница сайта

Новости сайта

03.07.2017

Напоминаем, что на нашем специализированном сайте Метеоцентр.Азия вы можете получить высокодетализированные автоматические прогнозы погоды по пунктам России, СНГ и мира в авиационном формате (включающие направление и скорость ветра, видимость, явления погоды, количество и форму облачности, нижнюю и верхнюю границу облачности).


Погода в Зилани - сегодня

Время (UTC), дата Ветер
(°,м/с) 
Видим.   Явления Облачность Т
(°С)
Тd
(°С)
f(%) Тe
(°С)
Pmin
(гПа)
dP
(гПа)
Po
(мм)
O2
(г/м3)
Тmin Tmax R s Состояние
почвы
03 17.10.17 300 (СЗ) 1-3  н/о    н/о 
+10 +9.5 97 +11  1018.4  1.6  754  291           
06 17.10.17 220 (ЮЗ) 1-2  н/о    н/о 
+10.6 +10.1 97 +13  1019.4  755  291           
09 17.10.17 220 (ЮЗ) 3-6  н/о    н/о 
+11.8 +10.4 91 +14  1018.7  -0.6  754  289           
12 17.10.17 210 (ЮЗ) 3-6  н/о    н/о 
+11.9 +11 94 +14  1016.9  -1.8  753  289           
15 17.10.17 220 (ЮЗ) 4-8  н/о    н/о 
+12.9 +11 88 +14  1013.9  -2.9  751  287           
18 17.10.17 210 (ЮЗ) 3-6  н/о    н/о 
+13 +11.8 92 +17  1011.9  -1.9  749  286           
21 17.10.17 240 (ЮЗ) 4-10  н/о    н/о 
+14.6 +11.9 84 +18  1009.9  -1.9  748  284           
00 18.10.17 250 (З) 3-7  н/о    н/о 
+12.2 +9.5 84 +13  1009.8  -0.3  748  287           
03 18.10.17 240 (ЮЗ) 3-7  н/о    н/о 
+11.4 +8.8 84 +11  1008.8  -0.9  747  287           
06 18.10.17 240 (ЮЗ) 3-7  н/о    н/о 
+10.7 +8.4 86 +10  1008.2  -0.6  746  288           
09 18.10.17 250 (З) 4-8  н/о    н/о 
+11.9 +8.5 80 +11  1008.4  0.2  747  287           
12 18.10.17 250 (З) 3-7  н/о    н/о 
+12.2 +9.8 85 +13  1009.4  747  287           
15 18.10.17 290 (З) 3-6  н/о    н/о 
+10.6 +9.8 95 +11  1010.9  1.4  749  289           
18 18.10.17 280 (З) 2-3  н/о    н/о 
+6.9 +6 94 +7  1013.4  2.3  750  294           
21 18.10.17 260 (З) 1-2  н/о    н/о 
+5 +5 100 +6  1015.1  1.5  751  296           
00 19.10.17 240 (ЮЗ) 1-2  н/о    н/о 
+3.6 +3.5 99 +4  1016.5  1.3  752  299           
03 19.10.17 230 (ЮЗ) 1-2  н/о    н/о 
+3 +2.9 99 +4  1017.4  0.8  753  300           
06 19.10.17 260 (З) 1-2  н/о    н/о 
+3.7 +3.7 100 +5  1018.7  1.3  754  299           
09 19.10.17 250 (З) 1-3  н/о    н/о 
+5.7 +5.7 100 +7  1020  1.4  755  297           
12 19.10.17 240 (ЮЗ) 1-2  н/о    н/о 
+9.4 +7.2 86 +10  1020.1  0.3  755  293           
15 19.10.17 260 (З) 1-1  н/о    н/о 
+7.4 +5.5 88 +8  1020.3  755  295           
18 19.10.17 260 (З) 1-2  н/о    н/о 
+3.8 +3.6 99 +5  1021.4  756  300           
21 19.10.17 200 (Ю) 1-1  н/о    н/о 
+1.8 +1.8 100 +3  1022.4  0.9  757  303           
00 20.10.17 тихо () -1  н/о    н/о 
+1.8 +1.8 100 +2  1023  0.6  757  303           
03 20.10.17 170 (Ю) 1-1  н/о    н/о 
+2.5 +2.5 100 +3  1023.2  0.3  757  302           
Время (UTC), дата Ветер
(°,м/с) 
Видим.   Явления Облачность Т
(°С)
Тd
(°С)
f(%) Тe
(°С)
Pmin
(гПа)
dP
(гПа)
Po
(мм)
O2
(г/м3)
Тmin Tmax R s Состояние
почвы

Для получения пояснительной информации подведите курсор к названию столбца.

ПОГОДА в Зилани - архив

Всё, что Вы хотите узнать о погоде в Зилани - удобно и подробно!

Выберите нужную дату (начиная с 1 января 2015* года) и нажмите кнопку "Найти".
Будут отображены архивные сводки погоды по пункту Зилани, начиная с указанной даты.


Отображать данные в формате CSV (для использования в таблицах Excel)


Внимание! Наш архив погоды предназначен исключительно для личного некоммерческого использования в познавательных целях. Если Вам необходимы официальные справки о состоянии погоды (для производственных, юридических, коммерческих и т.п. целей), обращайтесь в органы Росгидромета.

*Примечание: данная дата относится к архиву по метеостанциям СССР (Россия, СНГ, Балтия).
Архив по метеостанциям Зарубежной Европы и Азии (кроме Китая) хранится 10 дней, по другим регионам земного шара (Китай, Африка, Америка, Австралия, Океания) - 1 день.

Зилани - район местоположения метеостанции


Название, широта, долгота, высота метеостанции:
Зилани 56.5°ш. 25.9°д. 109 м над ур. моря [Латвия]

Дополнительная информация

В oтличие oт бoльшинства пoгoдных сайтoв мы публикуем пoдрoбную метеoинфoрмацию в детальнoм прoфессиoнальнoм фoрмате.

Характеристики температуры и влажнoсти вoздуха измеряются на высoте 2 м в тени вдали oт зданий и деревьев.
Скoрoсть ветра измеряется на высoте 10 м (на урoвне рoста челoвека скoрoсть ветра ниже в 1.5-2 раза). Если метеoстанция нахoдится в гoрoде или в лесу, тo скoрoсть ветра занижена на 2-4 м/с пo сравнению с oткрытым местoм. Скoрoсть ветра над акватoриями крупных рек и oзёр, а также на вершинах хoлмoв на 2-5 м/с выше, чем в oбычных услoвиях.
Атмoсфернoе давление в разных тoчках местнoсти мoжет значительнo oтличаться oт давления на метеoстанции, в зависимoсти oт услoвий рельефа (при пoдъёме на 10 м давление пoнижается примернo на 1 мм рт.ст.).